Retour au catalogue

STARLINK-30070

ActifCommunicationsVLEO
NORAD 56707·PAYLOAD·🇺🇸 United States

Lancé May 19, 2023 depuis Cape Canaveral Space Force Station

Loading…

Prochains Passages (prochaines 24 heures)

TLE

FraisSource: CelesTrak SupGP

Époque: Sep 15, 2026, 02:34 UTC

1 56707C 23067V   26258.10743056  .00004588  00000+0  16621-3 0  2583
2 56707  43.0002 281.3986 0001505 263.8520 261.7761 15.27571817    15

Suivez STARLINK-30070 en temps réel avec AllMySat

Download on the App Store